This demonstration page uses our WeatherBlox Daily Observations layout. Learn more.

38.88101, -77.10428

Hourly Observations for March 8, 2015

Temp ( °F °C ) Dew Point ( °F °C ) Humidity (%) Winds ( mph kmh ) Pressure ( in mb ) Visibility ( mi km ) Precip ( " mm )
12:52 am 00:52 Mostly Cloudy 42 5.6 26 -3.3 53 53 S 7 11 30.11 1020 10 16.0934 0 0
1:52 am 01:52 Partly Cloudy 42 5.6 26 -3.3 53 53 SSW 5 7 30.1 1019 10 16.0934 0 0
3:52 am 03:52 Mostly Clear 41 5 26 -3.3 55 55 S 6 9 30.09 1019 10 16.0934 0 0
4:52 am 04:52 Partly Cloudy 41 5 25 -3.9 53 53 S 6 9 30.09 1019 10 16.0934 0 0
5:52 am 05:52 Partly Cloudy 38 3.3 25 -3.9 60 60 Calm 30.1 1019 10 16.0934 0 0
6:52 am 06:52 Mostly Clear 35 1.7 27 -2.8 72 72 Calm 30.13 1020 10 16.0934 0 0
7:52 am 07:52 Mostly Sunny 37 2.8 25 -3.9 62 62 W 6 9 30.14 1021 10 16.0934 0 0
8:52 am 08:52 Partly Cloudy 38 3.3 28 -2.2 68 68 S 5 7 30.15 1021 10 16.0934 0 0
9:52 am 09:52 Partly Cloudy 43 6.1 29 -1.7 58 58 Calm 30.17 1022 10 16.0934 0 0
10:52 am 10:52 Partly Cloudy 50 10 27 -2.8 41 41 NW 12 19 30.17 1022 10 16.0934 0 0
11:52 am 11:52 Partly Cloudy 53 11.7 28 -2.2 38 38 W 14 22 30.17 1022 10 16.0934 0 0
12:52 pm 12:52 Partly Cloudy 54 12.2 28 -2.2 37 37 NW 15 24 30.17 1022 10 16.0934 0 0
1:52 pm 13:52 Mostly Cloudy 55 12.8 27 -2.8 34 34 W 15 24 30.16 1021 10 16.0934 0 0
2:52 pm 14:52 Partly Cloudy 57 14 27 -3 31 31 WNW 12 19 30.12 1020 10 16.0934 0 0
3:52 pm 15:52 Partly Cloudy 58 14.4 26 -3.3 29 29 WNW 10 17 30.13 1020 10 16.0934 0 0
4:52 pm 16:52 Partly Cloudy 58 14.4 26 -3.3 29 29 N 9 15 30.14 1021 10 16.0934 0 0
5:52 pm 17:52 Partly Cloudy 57 13.9 26 -3.3 30 30 NW 7 11 30.14 1021 10 16.0934 0 0
6:52 pm 18:52 Mostly Cloudy 57 13.9 23 -5 27 27 W 3 6 30.14 1021 10 16.0934 0 0
7:52 pm 19:52 Mostly Cloudy 50 10 27 -2.8 41 41 SSE 3 6 30.15 1021 10 16.0934 0 0
8:52 pm 20:52 Partly Cloudy 45 7.2 27 -2.8 49 49 Calm 30.17 1022 10 16.0934 0 0
9:52 pm 21:52 Partly Cloudy 44 6.7 29 -1.7 55 55 S 7 11 30.17 1022 10 16.0934 0 0
10:52 pm 22:52 Cloudy 41 5 29 -1.7 62 62 Calm 30.17 1022 10 16.0934 0 0
11:52 pm 23:52 Cloudy 40 4.4 29 -1.7 65 65 Calm 30.18 1022 10 16.0934 0 0

Powered by AerisWeather